Location: Copeville
(33.0796°N, 96.4155°W)
Time: 02:19:44
(UTC+00:00)

Oscar 11 - Pass Details

Date: 09 April 2023
Orbit: 609 x 619 km, 97.7° (Epoch: 07 June)

Event Time Altitude Azimuth Distance (km) Brightness Sun altitude
Rises 09:50:59 0° 31° (NNE) 2,880 11.4 -26.9°
Reaches altitude 10° 09:53:44 10° 50° (NE) 1,973 10.6 -26.4°
Maximum altitude 09:56:46 19° 95° (E) 1,484 9.6 -25.8°
Drops below altitude 10° 09:59:47 10° 140° (SE) 1,968 9.7 -25.3°
Enters shadow 10:01:48 - 155° (SSE) 2,617 10.2 -24.9°
